logo
Rechercher aéroport 
image banner adimage banner adimage banner ad
image banner ad

L53 - Lodi Airpark

Situé à Lodi, United States

ICAO - L53, IATA -

Données fournies par Airmate  

Information générale

Coordonnées: N38°5'3" W121°18'59"
Élévation : 25 feet MSL.
Variation magnétique : 16° East
Voir autres Aéroports à California

Données opérationnelles

Special qualification required
Heure actuelle UTC:
Heure actuelle locale:
Météo à : KSCK - Stockton Metropolitan ( 22 km )
METAR: KSCK 261555Z 33005KT 10SM CLR 20/13 A2995 RMK AO2 SLP142 T02000133
TAF: KSCK 261120Z 2612/2712 31008KT P6SM SKC
Voir NOTAMs / SUP AIP / TFR affectant cet aéroport [VIEW]
Fréquences de communication: [VIEW]

Pistes:

Identifiant RWYQFULongueur (ft)Largeur (ft)SurfaceLDA (ft)
07187522ASPH
25187522ASPH

Coordonnées de l'aéroport

Adresse: Lodi United States

Vue satellite de L53